DECAYED

STARLINK-4264, 52993 (Decayed)

Orbit data source: Space-Track

STARLINK-4264, 52993 was a payload satellite owned by SpaceX/Seattle (US) in LEO that was launched on Thu, 07 Jul 2022 UTC via an FALCON 9 launch vehicle from the Air Force Eastern Test Range (AFETR). Payload-class satellites include a variety of spacecraft equipped with specific instruments for various scientific and technological missions. These include communications satellites like Starlink; space stations such as the ISS; scientific satellites like the Hubble; Earth observation satellites from companies like Planet Labs, Umbra, and HawkEye 360; GPS; miniature CubeSats for education and research; and military/defense satellites.

Not visible in the next 10 days
Identifier
52993, 2022-076H
Orbit
Decayed
Country
Flag of USUS
Related business
Manufacturer
SpaceX/Seattle
Mission
Decayed Commercial Communications
Bus & Motor
STARLINK, Unknown motor
Mass
297 kg wet, ~275 kg dry
Launch date (UTC)
2022-07-07 (4 years ago)
Launch vehicle
FALCON 9
Launch site
Air Force Eastern Test Range (AFETR)
Object type
Payload
Rocket body
Debris
Shape & HBR
Box + 1 Pan, 10.1 m
Radar Cross Section
13.562 m², Large (>1 m²)

Expand to show TLE details & history
Last TLE update: 4 months ago

TLE from 4 months ago
0 STARLINK-4264
1 52993U 22076H   26043.67823957  .07565915  12358-4  52756-3 0  9996
2 52993  53.2057 182.8772 0002714 269.5353  90.5385 16.40382661199404
Epoch: 2026-02-12T16:16Z
TLE epoch observation values (Epoch: 2026-02-12T16:16:39.898Z)
Latitude
-0.00003°
Longitude
155.98438°
Altitude
165.749 km
Speed
7.808 km/s
True Right ascension
12h 11m 30s
True Declination
0° 00' 00"
Sunlit
Object was in full shadow at epoch
Visualization orbit readout
Latitude
Unknown
Longitude
Unknown
Altitude
Unknown
Speed
Unknown
Apparent Right ascension
Unknown
Apparent Declination
Unknown
Sunlit
N/A
Visualization observer readout
Local Sidereal Time
21:47:49
Azimuth
Unknown
Elevation
Unknown
Doppler factor
Unknown
Orbital elements
Apogee altitude
166.821 km
Perigee altitude
163.269 km
Semi-major axis
6,543.182 km
Eccentricity
0.00027
Inclination
53.2057°
RAAN
182.8772°
Arg. of periapsis
269.5353°
True anomaly
90.5696°
Mean anomaly
90.5385°
Eccentric anomaly
90.55405°
Mean motion
4.10072 °/min
Orbital period
87.79 mins
BSTAR
0.00052756
Loading maneuver chart data...
Computing Atmospheric mass density...
Loading historical data...
Loading historical data...
Loading historical data...
Loading historical data...
Loading historical data...
Loading historical data...
Loading historical data...

Documentation

Showing up to 5 results
|